When you browse on this site, cookies collect data to enhance your experience and personalize the content and advertising you see.
Visit our Privacy Policy to learn more. By continuing to use the site, you agree to this use of cookies and data.
  • în România
  • Lista ţărilor
  • Pe 7 zile
  • Temperatura apei
  • Hartă satelitară
  • Meteo pe hartă
  • Widget-uri
  • user-avatar
    Intrare

    Meteo pe oră la La-Plata

    Astăzi, 16 Ianuarie, Miercuri

    Timp Temperatura Precipitaţii Vânt Presiune Umiditate
    00:00 +20°C° 0 mm 3 m/s 756 mmHg 91%
    01:00 +20°C° 0 mm 2 m/s 756 mmHg 92%
    02:00 +19°C° 0 mm 2 m/s 755 mmHg 92%
    03:00 +19°C° 0 mm 2 m/s 755 mmHg 92%
    04:00 +19°C° 0 mm 2 m/s 755 mmHg 92%
    05:00 +18°C° 0 mm 2 m/s 755 mmHg 91%
    06:00 +21°C° 0 mm 1 m/s 756 mmHg 82%
    07:00 +23°C° 0 mm 1 m/s 756 mmHg 73%
    08:00 +25°C° 0 mm 1 m/s 756 mmHg 64%
    09:00 +27°C° 0 mm 1 m/s 756 mmHg 54%
    10:00 +29°C° 0 mm 1 m/s 756 mmHg 44%
    11:00 +31°C° 0 mm 1 m/s 756 mmHg 34%
    12:00 +32°C° 0 mm 1 m/s 756 mmHg 32%
    13:00 +34°C° 0 mm 2 m/s 756 mmHg 30%
    14:00 +35°C° 0 mm 2 m/s 756 mmHg 28%
    15:00 +34°C° 0 mm 2 m/s 755 mmHg 29%
    16:00 +34°C° 0 mm 3 m/s 755 mmHg 30%
    17:00 +34°C° 0 mm 3 m/s 755 mmHg 31%
    18:00 +31°C° 0 mm 3 m/s 755 mmHg 34%
    19:00 +29°C° 0 mm 3 m/s 756 mmHg 36%
    20:00 +27°C° 0 mm 3 m/s 756 mmHg 39%
    21:00 +26°C° 0 mm 3 m/s 757 mmHg 41%
    22:00 +26°C° 0 mm 3 m/s 757 mmHg 43%
    23:00 +26°C° 0 mm 2 m/s 758 mmHg 45%

    Mâine, 17 Ianuarie, Joi

    Timp Temperatura Precipitaţii Vânt Presiune Umiditate
    00:00 +23°C° 0 mm 4 m/s 758 mmHg 53%
    01:00 +22°C° 0 mm 5 m/s 759 mmHg 62%
    02:00 +21°C° 0 mm 7 m/s 759 mmHg 71%
    03:00 +20°C° 0 mm 7 m/s 759 mmHg 69%
    04:00 +20°C° 0 mm 8 m/s 760 mmHg 67%
    05:00 +20°C° 0 mm 8 m/s 761 mmHg 65%
    06:00 +21°C° 0 mm 7 m/s 761 mmHg 65%
    07:00 +22°C° 0 mm 7 m/s 761 mmHg 64%
    08:00 +23°C° 0 mm 7 m/s 762 mmHg 64%
    09:00 +23°C° 0 mm 7 m/s 762 mmHg 62%
    10:00 +24°C° 0 mm 7 m/s 762 mmHg 60%
    11:00 +26°C° 0 mm 7 m/s 763 mmHg 57%
    12:00 +26°C° 0 mm 8 m/s 762 mmHg 54%
    13:00 +26°C° 0 mm 9 m/s 762 mmHg 51%
    14:00 +27°C° 0 mm 10 m/s 762 mmHg 48%
    15:00 +26°C° 0 mm 10 m/s 762 mmHg 50%
    16:00 +24°C° 0 mm 9 m/s 762 mmHg 51%
    17:00 +23°C° 0 mm 9 m/s 762 mmHg 53%
    18:00 +22°C° 0 mm 8 m/s 763 mmHg 57%
    19:00 +20°C° 0 mm 8 m/s 763 mmHg 61%
    20:00 +18°C° 0 mm 8 m/s 764 mmHg 65%
    21:00 +18°C° 0 mm 8 m/s 764 mmHg 65%
    22:00 +18°C° 0 mm 7 m/s 765 mmHg 65%
    23:00 +18°C° 0 mm 7 m/s 765 mmHg 65%

    Poimâine, 18 Ianuarie, Vineri

    Timp Temperatura Precipitaţii Vânt Presiune Umiditate
    00:00 +18°C° 0 mm 7 m/s 764 mmHg 65%
    01:00 +19°C° 0 mm 6 m/s 764 mmHg 65%
    02:00 +19°C° 0 mm 6 m/s 764 mmHg 65%
    03:00 +19°C° 0.1 mm 5 m/s 764 mmHg 67%
    04:00 +19°C° 0.1 mm 5 m/s 764 mmHg 70%
    05:00 +19°C° 0.1 mm 4 m/s 764 mmHg 72%
    06:00 +20°C° 0 mm 5 m/s 764 mmHg 69%
    07:00 +21°C° 0 mm 5 m/s 764 mmHg 66%
    08:00 +22°C° 0 mm 6 m/s 764 mmHg 63%
    09:00 +24°C° 0 mm 6 m/s 763 mmHg 58%
    10:00 +27°C° 0 mm 6 m/s 763 mmHg 53%
    11:00 +28°C° 0 mm 7 m/s 763 mmHg 48%
    12:00 +28°C° 0.1 mm 7 m/s 762 mmHg 50%
    13:00 +28°C° 0.1 mm 7 m/s 762 mmHg 52%
    14:00 +27°C° 0.1 mm 7 m/s 761 mmHg 54%
    15:00 +27°C° 0 mm 7 m/s 761 mmHg 54%
    16:00 +26°C° 0 mm 7 m/s 761 mmHg 54%
    17:00 +26°C° 0 mm 7 m/s 761 mmHg 54%
    18:00 +24°C° 0 mm 7 m/s 762 mmHg 59%
    19:00 +22°C° 0 mm 6 m/s 762 mmHg 64%
    20:00 +21°C° 0 mm 6 m/s 763 mmHg 68%
    21:00 +21°C° 0 mm 5 m/s 763 mmHg 71%
    22:00 +20°C° 0 mm 5 m/s 763 mmHg 74%
    23:00 +20°C° 0 mm 4 m/s 763 mmHg 77%

    19 Ianuarie, Sâmbătă

    Timp Temperatura Precipitaţii Vânt Presiune Umiditate
    00:00 +20°C° 0.1 mm 4 m/s 763 mmHg 79%
    01:00 +20°C° 0.1 mm 4 m/s 763 mmHg 80%
    02:00 +19°C° 0.1 mm 3 m/s 763 mmHg 81%
    03:00 +20°C° 0 mm 3 m/s 763 mmHg 81%
    04:00 +20°C° 0 mm 3 m/s 763 mmHg 80%
    05:00 +20°C° 0 mm 2 m/s 763 mmHg 80%
    06:00 +21°C° 0.1 mm 3 m/s 763 mmHg 76%
    07:00 +22°C° 0.1 mm 3 m/s 764 mmHg 72%
    08:00 +24°C° 0.1 mm 3 m/s 764 mmHg 69%
    09:00 +25°C° 0.1 mm 4 m/s 764 mmHg 64%
    10:00 +26°C° 0.1 mm 4 m/s 764 mmHg 59%
    11:00 +27°C° 0.1 mm 4 m/s 764 mmHg 54%
    12:00 +27°C° 0 mm 5 m/s 763 mmHg 52%
    13:00 +28°C° 0 mm 5 m/s 763 mmHg 50%
    14:00 +28°C° 0 mm 5 m/s 762 mmHg 49%
    15:00 +28°C° 0 mm 5 m/s 762 mmHg 50%
    16:00 +27°C° 0 mm 6 m/s 762 mmHg 51%
    17:00 +27°C° 0 mm 6 m/s 761 mmHg 53%
    18:00 +26°C° 0 mm 6 m/s 762 mmHg 59%
    19:00 +25°C° 0 mm 5 m/s 762 mmHg 64%
    20:00 +22°C° 0 mm 5 m/s 762 mmHg 70%
    21:00 +22°C° 0 mm 5 m/s 762 mmHg 71%
    22:00 +22°C° 0 mm 5 m/s 763 mmHg 72%
    23:00 +22°C° 0 mm 5 m/s 763 mmHg 73%

    20 Ianuarie, Duminică

    Timp Temperatura Precipitaţii Vânt Presiune Umiditate
    00:00 +22°C° 0 mm 5 m/s 763 mmHg 73%
    01:00 +21°C° 0 mm 5 m/s 762 mmHg 74%
    02:00 +21°C° 0 mm 5 m/s 762 mmHg 74%
    03:00 +21°C° 0 mm 5 m/s 762 mmHg 75%
    04:00 +20°C° 0 mm 4 m/s 762 mmHg 75%
    05:00 +20°C° 0 mm 4 m/s 762 mmHg 76%
    06:00 +21°C° 0 mm 4 m/s 762 mmHg 71%
    07:00 +23°C° 0 mm 4 m/s 762 mmHg 66%
    08:00 +25°C° 0 mm 5 m/s 763 mmHg 61%
    09:00 +26°C° 0 mm 5 m/s 762 mmHg 57%
    10:00 +27°C° 0 mm 5 m/s 762 mmHg 53%
    11:00 +28°C° 0 mm 5 m/s 761 mmHg 49%
    12:00 +29°C° 0 mm 5 m/s 761 mmHg 47%
    13:00 +30°C° 0 mm 5 m/s 760 mmHg 45%
    14:00 +30°C° 0 mm 5 m/s 759 mmHg 43%
    15:00 +30°C° 0 mm 5 m/s 759 mmHg 44%
    16:00 +30°C° 0 mm 5 m/s 758 mmHg 46%
    17:00 +29°C° 0 mm 5 m/s 758 mmHg 47%
    18:00 +28°C° 0 mm 4 m/s 758 mmHg 54%
    19:00 +26°C° 0 mm 4 m/s 758 mmHg 62%
    20:00 +25°C° 0 mm 3 m/s 759 mmHg 69%
    21:00 +25°C° 0 mm 4 m/s 759 mmHg 69%
    22:00 +25°C° 0 mm 5 m/s 759 mmHg 69%
    23:00 +24°C° 0 mm 6 m/s 759 mmHg 68%

    21 Ianuarie, Luni

    Timp Temperatura Precipitaţii Vânt Presiune Umiditate
    00:00 +24°C° 0 mm 6 m/s 759 mmHg 71%
    01:00 +23°C° 0 mm 6 m/s 759 mmHg 74%
    02:00 +23°C° 0 mm 6 m/s 758 mmHg 76%
    03:00 +22°C° 0 mm 5 m/s 758 mmHg 79%
    04:00 +22°C° 0 mm 5 m/s 758 mmHg 81%
    05:00 +21°C° 0 mm 5 m/s 758 mmHg 83%
    06:00 +22°C° 0 mm 5 m/s 758 mmHg 78%
    07:00 +25°C° 0 mm 5 m/s 758 mmHg 72%
    08:00 +26°C° 0 mm 5 m/s 758 mmHg 67%
    09:00 +27°C° 0 mm 4 m/s 758 mmHg 61%
    10:00 +28°C° 0 mm 4 m/s 758 mmHg 55%
    11:00 +30°C° 0 mm 3 m/s 757 mmHg 49%
    12:00 +31°C° 0 mm 3 m/s 757 mmHg 46%
    13:00 +31°C° 0 mm 3 m/s 756 mmHg 42%
    14:00 +33°C° 0 mm 3 m/s 756 mmHg 39%
    15:00 +33°C° 0 mm 3 m/s 755 mmHg 41%
    16:00 +33°C° 0 mm 4 m/s 755 mmHg 42%
    17:00 +32°C° 0 mm 4 m/s 755 mmHg 44%
    18:00 +29°C° 0 mm 4 m/s 755 mmHg 54%
    19:00 +28°C° 0 mm 4 m/s 755 mmHg 64%
    20:00 +26°C° 0 mm 4 m/s 755 mmHg 75%
    21:00 +26°C° 0 mm 4 m/s 755 mmHg 74%
    22:00 +26°C° 0 mm 3 m/s 756 mmHg 74%
    23:00 +26°C° 0 mm 3 m/s 756 mmHg 74%
    Arată mai mult